contact:dominique.lefevre@mio.osupytheas.fr, maurice.libes@osupytheas.fr, didier.mallarino@osupytheas.fr
Project:EMSO http://www.emso-fr.org/EMSO-France
Depth: 2436.0 m
Title:EMSO Ligure Ouest : Data MII capteur MICROCAT
DateTime_Computer,Latitude,Longitude,Temperature,Conductivity,Pressure,DateTime_Instrument
DateTime_Computer,Latitude,Longitude,degC,S m-1,dbar,DateTime_Instrument
2022-05-30T08:58:08Z,42.805,6.029,13.3011,4.60069,2470.646,2022-5-30T10:59:50Z
2022-05-30T09:01:11Z,42.805,6.029,13.3004,4.60081,2470.661,2022-5-30T11:02:53Z
2022-05-30T09:04:14Z,42.805,6.029,13.3016,4.60102,2470.624,2022-5-30T11:05:57Z
2022-05-30T09:07:18Z,42.805,6.029,13.3012,4.60071,2470.67,2022-5-30T11:09:00Z
2022-05-30T09:10:21Z,42.805,6.029,13.3006,4.60079,2470.661,2022-5-30T11:12:03Z
2022-05-30T09:13:24Z,42.805,6.029,13.3010,4.60077,2470.67,2022-5-30T11:15:06Z
2022-05-30T09:16:27Z,42.805,6.029,13.3005,4.60095,2470.624,2022-5-30T11:18:09Z
2022-05-30T09:19:30Z,42.805,6.029,13.3029,4.60076,2470.646,2022-5-30T11:21:12Z
2022-05-30T09:22:33Z,42.805,6.029,13.3019,4.60087,2470.646,2022-5-30T11:24:15Z
2022-05-30T09:25:36Z,42.805,6.029,13.3011,4.60081,2470.646,2022-5-30T11:27:18Z
2022-05-30T09:28:39Z,42.805,6.029,13.3012,4.60076,2470.67,2022-5-30T11:30:22Z
2022-05-30T09:31:43Z,42.805,6.029,13.3039,4.60097,2470.614,2022-5-30T11:33:25Z
2022-05-30T09:34:46Z,42.805,6.029,13.3021,4.60087,2470.614,2022-5-30T11:36:28Z
2022-05-30T09:37:49Z,42.805,6.029,13.3015,4.60077,2470.624,2022-5-30T11:39:31Z
2022-05-30T09:40:52Z,42.805,6.029,13.3008,4.60070,2470.624,2022-5-30T11:42:34Z
2022-05-30T09:43:55Z,42.805,6.029,13.3017,4.60079,2470.624,2022-5-30T11:45:37Z
2022-05-30T09:46:58Z,42.805,6.029,13.3019,4.60071,2470.624,2022-5-30T11:48:40Z
2022-05-30T09:50:01Z,42.805,6.029,13.3017,4.60063,2470.637,2022-5-30T11:51:43Z
2022-05-30T09:53:04Z,42.805,6.029,13.3015,4.60064,2470.67,2022-5-30T11:54:47Z
2022-05-30T09:56:08Z,42.805,6.029,13.3010,4.60075,2470.624,2022-5-30T11:57:50Z
2022-05-30T09:59:11Z,42.805,6.029,13.3014,4.60061,2470.6,2022-5-30T12:00:53Z
2022-05-30T10:02:14Z,42.805,6.029,13.3007,4.60057,2470.577,2022-5-30T12:03:56Z
2022-05-30T10:05:17Z,42.805,6.029,13.3011,4.60080,2470.591,2022-5-30T12:06:59Z
2022-05-30T10:08:20Z,42.805,6.029,13.3010,4.60078,2470.6,2022-5-30T12:10:02Z
2022-05-30T10:11:23Z,42.805,6.029,13.3003,4.60059,2470.646,2022-5-30T12:13:05Z
2022-05-30T10:14:26Z,42.805,6.029,13.3012,4.60063,2470.637,2022-5-30T12:16:08Z
2022-05-30T10:17:29Z,42.805,6.029,13.3015,4.60079,2470.624,2022-5-30T12:19:12Z
2022-05-30T10:20:33Z,42.805,6.029,13.3006,4.60061,2470.577,2022-5-30T12:22:15Z
2022-05-30T10:23:36Z,42.805,6.029,13.3006,4.60076,2470.637,2022-5-30T12:25:18Z
2022-05-30T10:26:39Z,42.805,6.029,13.3012,4.60087,2470.577,2022-5-30T12:28:21Z
2022-05-30T10:29:42Z,42.805,6.029,13.3011,4.60087,2470.577,2022-5-30T12:31:24Z
2022-05-30T10:32:45Z,42.805,6.029,13.3014,4.60089,2470.6,2022-5-30T12:34:27Z
2022-05-30T10:35:48Z,42.805,6.029,13.3020,4.60072,2470.591,2022-5-30T12:37:30Z
2022-05-30T10:38:51Z,42.805,6.029,13.3017,4.60087,2470.614,2022-5-30T12:40:33Z
2022-05-30T10:41:55Z,42.805,6.029,13.3009,4.60076,2470.577,2022-5-30T12:43:37Z
2022-05-30T10:44:58Z,42.805,6.029,13.3006,4.60061,2470.614,2022-5-30T12:46:40Z
2022-05-30T10:48:01Z,42.805,6.029,13.3010,4.60056,2470.6,2022-5-30T12:49:43Z
2022-05-30T10:51:04Z,42.805,6.029,13.3006,4.60051,2470.6,2022-5-30T12:52:46Z
2022-05-30T10:54:07Z,42.805,6.029,13.3008,4.60074,2470.567,2022-5-30T12:55:49Z
2022-05-30T10:57:10Z,42.805,6.029,13.3010,4.60054,2470.591,2022-5-30T12:58:52Z
2022-05-30T11:00:13Z,42.805,6.029,13.3015,4.60081,2470.577,2022-5-30T13:01:55Z
2022-05-30T11:03:16Z,42.805,6.029,13.3010,4.60066,2470.53,2022-5-30T13:04:58Z
2022-05-30T11:06:20Z,42.805,6.029,13.3004,4.60072,2470.591,2022-5-30T13:08:02Z
2022-05-30T11:09:23Z,42.805,6.029,13.3006,4.60085,2470.577,2022-5-30T13:11:05Z
2022-05-30T11:12:26Z,42.805,6.029,13.3006,4.60073,2470.553,2022-5-30T13:14:08Z
2022-05-30T11:15:29Z,42.805,6.029,13.3018,4.60066,2470.577,2022-5-30T13:17:11Z
2022-05-30T11:18:32Z,42.805,6.029,13.3006,4.60057,2470.591,2022-5-30T13:20:14Z
2022-05-30T11:21:35Z,42.805,6.029,13.3009,4.60051,2470.577,2022-5-30T13:23:17Z
2022-05-30T11:24:38Z,42.805,6.029,13.3024,4.60084,2470.591,2022-5-30T13:26:20Z
2022-05-30T11:27:41Z,42.805,6.029,13.3009,4.60064,2470.53,2022-5-30T13:29:23Z
2022-05-30T11:30:44Z,42.805,6.029,13.3009,4.60084,2470.553,2022-5-30T13:32:27Z
2022-05-30T11:33:48Z,42.805,6.029,13.3005,4.60077,2470.544,2022-5-30T13:35:30Z
2022-05-30T11:36:51Z,42.805,6.029,13.3020,4.60084,2470.544,2022-5-30T13:38:33Z
2022-05-30T11:39:54Z,42.805,6.029,13.3012,4.60073,2470.539,2022-5-30T13:41:36Z
2022-05-30T11:42:57Z,42.805,6.029,13.3007,4.60046,2470.539,2022-5-30T13:44:39Z
2022-05-30T11:46:00Z,42.805,6.029,13.3005,4.60049,2470.544,2022-5-30T13:47:42Z
2022-05-30T11:49:03Z,42.805,6.029,13.3014,4.60057,2470.553,2022-5-30T13:50:45Z
2022-05-30T11:52:06Z,42.805,6.029,13.3011,4.60052,2470.577,2022-5-30T13:53:48Z
2022-05-30T11:55:10Z,42.805,6.029,13.3007,4.60061,2470.591,2022-5-30T13:56:52Z
2022-05-30T11:58:13Z,42.805,6.029,13.3005,4.60055,2470.567,2022-5-30T13:59:55Z
2022-05-30T12:01:16Z,42.805,6.029,13.3007,4.60057,2470.544,2022-5-30T14:02:58Z
2022-05-30T12:04:19Z,42.805,6.029,13.3011,4.60087,2470.544,2022-5-30T14:06:01Z
2022-05-30T12:07:22Z,42.805,6.029,13.3018,4.60084,2470.544,2022-5-30T14:09:04Z
2022-05-30T12:10:25Z,42.805,6.029,13.3013,4.60077,2470.52,2022-5-30T14:12:07Z
2022-05-30T12:13:28Z,42.805,6.029,13.3014,4.60067,2470.591,2022-5-30T14:15:10Z
2022-05-30T12:16:31Z,42.805,6.029,13.3015,4.60059,2470.507,2022-5-30T14:18:13Z
2022-05-30T12:19:35Z,42.805,6.029,13.3006,4.60072,2470.553,2022-5-30T14:21:17Z
2022-05-30T12:22:38Z,42.805,6.029,13.3017,4.60068,2470.507,2022-5-30T14:24:20Z
2022-05-30T12:25:41Z,42.805,6.029,13.3015,4.60062,2470.567,2022-5-30T14:27:23Z
2022-05-30T12:28:44Z,42.805,6.029,13.3018,4.60062,2470.553,2022-5-30T14:30:26Z
2022-05-30T12:31:47Z,42.805,6.029,13.3017,4.60068,2470.553,2022-5-30T14:33:29Z
2022-05-30T12:34:50Z,42.805,6.029,13.3014,4.60067,2470.553,2022-5-30T14:36:32Z
2022-05-30T12:37:53Z,42.805,6.029,13.3006,4.60059,2470.52,2022-5-30T14:39:35Z
2022-05-30T12:40:56Z,42.805,6.029,13.3011,4.60060,2470.53,2022-5-30T14:42:38Z
2022-05-30T12:44:00Z,42.805,6.029,13.3007,4.60063,2470.544,2022-5-30T14:45:42Z
2022-05-30T12:47:03Z,42.805,6.029,13.3021,4.60072,2470.53,2022-5-30T14:48:45Z
2022-05-30T12:50:06Z,42.805,6.029,13.3009,4.60074,2470.53,2022-5-30T14:51:48Z
2022-05-30T12:53:09Z,42.805,6.029,13.3019,4.60078,2470.507,2022-5-30T14:54:51Z
2022-05-30T12:56:12Z,42.805,6.029,13.3011,4.60071,2470.567,2022-5-30T14:57:54Z
2022-05-30T12:59:15Z,42.805,6.029,13.3009,4.60079,2470.53,2022-5-30T15:00:57Z
2022-05-30T13:02:18Z,42.805,6.029,13.3005,4.60051,2470.544,2022-5-30T15:04:00Z
2022-05-30T13:05:21Z,42.805,6.029,13.3004,4.60047,2470.52,2022-5-30T15:07:03Z
2022-05-30T13:08:25Z,42.805,6.029,13.3010,4.60082,2470.53,2022-5-30T15:10:07Z
2022-05-30T13:11:28Z,42.805,6.029,13.3014,4.60074,2470.544,2022-5-30T15:13:10Z
2022-05-30T13:14:31Z,42.805,6.029,13.3014,4.60079,2470.553,2022-5-30T15:16:13Z
2022-05-30T13:17:34Z,42.805,6.029,13.3021,4.60081,2470.53,2022-5-30T15:19:16Z
2022-05-30T13:20:37Z,42.805,6.029,13.3023,4.60081,2470.53,2022-5-30T15:22:19Z
2022-05-30T13:23:40Z,42.805,6.029,13.3009,4.60076,2470.52,2022-5-30T15:25:22Z
2022-05-30T13:26:43Z,42.805,6.029,13.3013,4.60069,2470.567,2022-5-30T15:28:25Z
2022-05-30T13:29:46Z,42.805,6.029,13.3020,4.60062,2470.507,2022-5-30T15:31:28Z
2022-05-30T13:32:50Z,42.805,6.029,13.3011,4.60090,2470.53,2022-5-30T15:34:32Z
2022-05-30T13:35:53Z,42.805,6.029,13.3011,4.60062,2470.553,2022-5-30T15:37:35Z
2022-05-30T13:38:56Z,42.805,6.029,13.3018,4.60077,2470.52,2022-5-30T15:40:38Z
2022-05-30T13:41:59Z,42.805,6.029,13.3032,4.60069,2470.544,2022-5-30T15:43:41Z
2022-05-30T13:45:02Z,42.805,6.029,13.3013,4.60075,2470.567,2022-5-30T15:46:44Z
2022-05-30T13:48:05Z,42.805,6.029,13.3010,4.60069,2470.544,2022-5-30T15:49:47Z
2022-05-30T13:51:08Z,42.805,6.029,13.3018,4.60069,2470.53,2022-5-30T15:52:50Z
2022-05-30T13:54:11Z,42.805,6.029,13.3010,4.60050,2470.544,2022-5-30T15:55:54Z
2022-05-30T13:57:15Z,42.805,6.029,13.3005,4.60049,2470.553,2022-5-30T15:58:57Z
2022-05-30T14:00:18Z,42.805,6.029,13.3008,4.60066,2470.52,2022-5-30T16:02:00Z
2022-05-30T14:03:21Z,42.805,6.029,13.3011,4.60095,2470.53,2022-5-30T16:05:03Z
2022-05-30T14:06:24Z,42.805,6.029,13.3014,4.60082,2470.507,2022-5-30T16:08:06Z
2022-05-30T14:09:27Z,42.805,6.029,13.3014,4.60058,2470.553,2022-5-30T16:11:09Z
2022-05-30T14:12:30Z,42.805,6.029,13.3021,4.60067,2470.53,2022-5-30T16:14:12Z
2022-05-30T14:15:33Z,42.805,6.029,13.3021,4.60092,2470.53,2022-5-30T16:17:15Z
2022-05-30T14:18:36Z,42.805,6.029,13.3024,4.60089,2470.507,2022-5-30T16:20:19Z
2022-05-30T14:21:40Z,42.805,6.029,13.3023,4.60089,2470.553,2022-5-30T16:23:22Z
2022-05-30T14:24:43Z,42.805,6.029,13.3013,4.60094,2470.577,2022-5-30T16:26:25Z
2022-05-30T14:27:46Z,42.805,6.029,13.3013,4.60057,2470.567,2022-5-30T16:29:28Z
2022-05-30T14:30:49Z,42.805,6.029,13.3000,4.60058,2470.544,2022-5-30T16:32:31Z
2022-05-30T14:33:52Z,42.805,6.029,13.3019,4.60064,2470.53,2022-5-30T16:35:34Z
2022-05-30T14:36:55Z,42.805,6.029,13.3020,4.60068,2470.544,2022-5-30T16:38:37Z
2022-05-30T14:39:58Z,42.805,6.029,13.3013,4.60074,2470.553,2022-5-30T16:41:40Z
2022-05-30T14:43:01Z,42.805,6.029,13.3020,4.60089,2470.53,2022-5-30T16:44:44Z
2022-05-30T14:46:05Z,42.805,6.029,13.3028,4.60080,2470.567,2022-5-30T16:47:47Z
2022-05-30T14:49:08Z,42.805,6.029,13.3039,4.60081,2470.544,2022-5-30T16:50:50Z
2022-05-30T14:52:11Z,42.805,6.029,13.3017,4.60057,2470.553,2022-5-30T16:53:53Z
2022-05-30T14:55:14Z,42.805,6.029,13.3002,4.60057,2470.567,2022-5-30T16:56:56Z
2022-05-30T14:58:17Z,42.805,6.029,13.3007,4.60059,2470.567,2022-5-30T16:59:59Z
2022-05-30T15:01:20Z,42.805,6.029,13.3011,4.60074,2470.591,2022-5-30T17:03:02Z
2022-05-30T15:04:23Z,42.805,6.029,13.3015,4.60064,2470.553,2022-5-30T17:06:05Z
2022-05-30T15:07:26Z,42.805,6.029,13.3022,4.60102,2470.553,2022-5-30T17:09:09Z
2022-05-30T15:10:30Z,42.805,6.029,13.3011,4.60077,2470.577,2022-5-30T17:12:12Z
2022-05-30T15:13:33Z,42.805,6.029,13.3014,4.60075,2470.591,2022-5-30T17:15:15Z
2022-05-30T15:16:36Z,42.805,6.029,13.3014,4.60092,2470.577,2022-5-30T17:18:18Z
2022-05-30T15:19:39Z,42.805,6.029,13.3007,4.60084,2470.591,2022-5-30T17:21:21Z
2022-05-30T15:22:42Z,42.805,6.029,13.3012,4.60072,2470.591,2022-5-30T17:24:24Z
2022-05-30T15:25:45Z,42.805,6.029,13.3024,4.60093,2470.567,2022-5-30T17:27:27Z
2022-05-30T15:28:48Z,42.805,6.029,13.3028,4.60094,2470.577,2022-5-30T17:30:30Z
2022-05-30T15:31:52Z,42.805,6.029,13.3029,4.60079,2470.577,2022-5-30T17:33:34Z
2022-05-30T15:34:55Z,42.805,6.029,13.3022,4.60062,2470.614,2022-5-30T17:36:37Z
2022-05-30T15:37:58Z,42.805,6.029,13.3021,4.60096,2470.6,2022-5-30T17:39:40Z
2022-05-30T15:41:01Z,42.805,6.029,13.3010,4.60074,2470.624,2022-5-30T17:42:43Z
2022-05-30T15:44:04Z,42.805,6.029,13.3020,4.60092,2470.6,2022-5-30T17:45:46Z
2022-05-30T15:47:07Z,42.805,6.029,13.3024,4.60081,2470.591,2022-5-30T17:48:49Z
2022-05-30T15:50:10Z,42.805,6.029,13.3009,4.60059,2470.6,2022-5-30T17:51:52Z
2022-05-30T15:53:13Z,42.805,6.029,13.3028,4.60086,2470.577,2022-5-30T17:54:56Z
2022-05-30T15:56:17Z,42.805,6.029,13.3043,4.60067,2470.6,2022-5-30T17:57:59Z
2022-05-30T15:59:20Z,42.805,6.029,13.3025,4.60063,2470.6,2022-5-30T18:01:02Z
2022-05-30T16:02:23Z,42.805,6.029,13.3011,4.60064,2470.614,2022-5-30T18:04:05Z
2022-05-30T16:05:26Z,42.805,6.029,13.3024,4.60088,2470.624,2022-5-30T18:07:08Z
2022-05-30T16:08:29Z,42.805,6.029,13.3026,4.60105,2470.637,2022-5-30T18:10:11Z
2022-05-30T16:11:32Z,42.805,6.029,13.3021,4.60092,2470.614,2022-5-30T18:13:14Z
2022-05-30T16:14:35Z,42.805,6.029,13.3011,4.60070,2470.6,2022-5-30T18:16:17Z
2022-05-30T16:17:38Z,42.805,6.029,13.3014,4.60058,2470.646,2022-5-30T18:19:21Z
2022-05-30T16:20:42Z,42.805,6.029,13.3017,4.60102,2470.637,2022-5-30T18:22:24Z
2022-05-30T16:23:45Z,42.805,6.029,13.3031,4.60093,2470.6,2022-5-30T18:25:27Z
2022-05-30T16:26:48Z,42.805,6.029,13.3032,4.60081,2470.614,2022-5-30T18:28:30Z
2022-05-30T16:29:51Z,42.805,6.029,13.3034,4.60112,2470.637,2022-5-30T18:31:33Z
2022-05-30T16:32:54Z,42.805,6.029,13.3015,4.60075,2470.624,2022-5-30T18:34:36Z
2022-05-30T16:35:57Z,42.805,6.029,13.3019,4.60081,2470.646,2022-5-30T18:37:39Z
2022-05-30T16:39:00Z,42.805,6.029,13.3018,4.60075,2470.637,2022-5-30T18:40:42Z
2022-05-30T16:42:03Z,42.805,6.029,13.3016,4.60067,2470.637,2022-5-30T18:43:46Z
2022-05-30T16:45:07Z,42.805,6.029,13.3018,4.60074,2470.67,2022-5-30T18:46:49Z
2022-05-30T16:48:10Z,42.805,6.029,13.3009,4.60077,2470.67,2022-5-30T18:49:52Z
2022-05-30T16:51:13Z,42.805,6.029,13.3014,4.60094,2470.646,2022-5-30T18:52:55Z
2022-05-30T16:54:16Z,42.805,6.029,13.3014,4.60088,2470.684,2022-5-30T18:55:58Z
2022-05-30T16:57:19Z,42.805,6.029,13.3009,4.60077,2470.661,2022-5-30T18:59:01Z
2022-05-30T17:00:22Z,42.805,6.029,13.3022,4.60092,2470.67,2022-5-30T19:02:04Z
2022-05-30T17:03:25Z,42.805,6.029,13.3038,4.60094,2470.693,2022-5-30T19:05:07Z
2022-05-30T17:06:28Z,42.805,6.029,13.3020,4.60078,2470.67,2022-5-30T19:08:11Z
2022-05-30T17:09:32Z,42.805,6.029,13.3026,4.60076,2470.67,2022-5-30T19:11:14Z
2022-05-30T17:12:35Z,42.805,6.029,13.3016,4.60094,2470.67,2022-5-30T19:14:17Z
2022-05-30T17:15:38Z,42.805,6.029,13.3020,4.60072,2470.693,2022-5-30T19:17:20Z
2022-05-30T17:18:41Z,42.805,6.029,13.3015,4.60062,2470.684,2022-5-30T19:20:23Z
2022-05-30T17:21:44Z,42.805,6.029,13.3014,4.60069,2470.707,2022-5-30T19:23:26Z
2022-05-30T17:24:47Z,42.805,6.029,13.3015,4.60066,2470.74,2022-5-30T19:26:29Z
2022-05-30T17:27:50Z,42.805,6.029,13.3021,4.60080,2470.717,2022-5-30T19:29:32Z
2022-05-30T17:30:53Z,42.805,6.029,13.3026,4.60092,2470.707,2022-5-30T19:32:36Z
2022-05-30T17:33:57Z,42.805,6.029,13.3008,4.60073,2470.717,2022-5-30T19:35:39Z
2022-05-30T17:37:00Z,42.805,6.029,13.3017,4.60069,2470.717,2022-5-30T19:38:42Z
2022-05-30T17:40:03Z,42.805,6.029,13.3019,4.60067,2470.73,2022-5-30T19:41:45Z
2022-05-30T17:43:06Z,42.805,6.029,13.3015,4.60072,2470.717,2022-5-30T19:44:48Z
2022-05-30T17:46:09Z,42.805,6.029,13.3006,4.60066,2470.707,2022-5-30T19:47:51Z
2022-05-30T17:49:12Z,42.805,6.029,13.3008,4.60057,2470.74,2022-5-30T19:50:54Z
2022-05-30T17:52:15Z,42.805,6.029,13.3014,4.60054,2470.707,2022-5-30T19:53:57Z
2022-05-30T17:55:19Z,42.805,6.029,13.3013,4.60055,2470.73,2022-5-30T19:57:01Z
2022-05-30T17:58:22Z,42.805,6.029,13.3012,4.60052,2470.717,2022-5-30T20:00:04Z
2022-05-30T18:01:25Z,42.805,6.029,13.3007,4.60055,2470.73,2022-5-30T20:03:07Z
2022-05-30T18:04:28Z,42.805,6.029,13.3019,4.60082,2470.717,2022-5-30T20:06:10Z
2022-05-30T18:07:31Z,42.805,6.029,13.3008,4.60091,2470.754,2022-5-30T20:09:13Z
2022-05-30T18:10:34Z,42.805,6.029,13.3018,4.60073,2470.754,2022-5-30T20:12:16Z
2022-05-30T18:13:37Z,42.805,6.029,13.3023,4.60097,2470.707,2022-5-30T20:15:19Z
2022-05-30T18:16:40Z,42.805,6.029,13.3004,4.60071,2470.754,2022-5-30T20:18:22Z
2022-05-30T18:19:44Z,42.805,6.029,13.3006,4.60072,2470.74,2022-5-30T20:21:26Z
2022-05-30T18:22:47Z,42.805,6.029,13.3011,4.60076,2470.726,2022-5-30T20:24:29Z
2022-05-30T18:25:50Z,42.805,6.029,13.3013,4.60074,2470.8,2022-5-30T20:27:32Z
2022-05-30T18:28:53Z,42.805,6.029,13.3009,4.60079,2470.777,2022-5-30T20:30:35Z
2022-05-30T18:31:56Z,42.805,6.029,13.3012,4.60103,2470.74,2022-5-30T20:33:38Z
2022-05-30T18:34:59Z,42.805,6.029,13.3020,4.60067,2470.74,2022-5-30T20:36:41Z
2022-05-30T18:38:02Z,42.805,6.029,13.3007,4.60076,2470.754,2022-5-30T20:39:44Z
2022-05-30T18:41:05Z,42.805,6.029,13.3016,4.60074,2470.74,2022-5-30T20:42:48Z
2022-05-30T18:44:09Z,42.805,6.029,13.3007,4.60060,2470.763,2022-5-30T20:45:51Z
2022-05-30T18:47:12Z,42.805,6.029,13.3026,4.60085,2470.754,2022-5-30T20:48:54Z
2022-05-30T18:50:15Z,42.805,6.029,13.3014,4.60068,2470.754,2022-5-30T20:51:57Z
2022-05-30T18:53:18Z,42.805,6.029,13.3029,4.60079,2470.74,2022-5-30T20:55:00Z
2022-05-30T18:56:21Z,42.805,6.029,13.3006,4.60059,2470.763,2022-5-30T20:58:03Z
2022-05-30T18:59:24Z,42.805,6.029,13.3010,4.60092,2470.754,2022-5-30T21:01:06Z
2022-05-30T19:02:27Z,42.805,6.029,13.3020,4.60094,2470.754,2022-5-30T21:04:09Z
2022-05-30T19:05:30Z,42.805,6.029,13.3017,4.60077,2470.763,2022-5-30T21:07:13Z
2022-05-30T19:08:34Z,42.805,6.029,13.3006,4.60072,2470.754,2022-5-30T21:10:16Z
2022-05-30T19:11:37Z,42.805,6.029,13.3006,4.60054,2470.754,2022-5-30T21:13:19Z
2022-05-30T19:14:40Z,42.805,6.029,13.3010,4.60062,2470.763,2022-5-30T21:16:22Z
2022-05-30T19:17:43Z,42.805,6.029,13.3019,4.60084,2470.763,2022-5-30T21:19:25Z
2022-05-30T19:20:46Z,42.805,6.029,13.3008,4.60077,2470.763,2022-5-30T21:22:28Z
2022-05-30T19:23:49Z,42.805,6.029,13.3020,4.60077,2470.74,2022-5-30T21:25:31Z
2022-05-30T19:26:52Z,42.805,6.029,13.3012,4.60060,2470.74,2022-5-30T21:28:34Z
2022-05-30T19:29:55Z,42.805,6.029,13.3015,4.60069,2470.777,2022-5-30T21:31:38Z
2022-05-30T19:32:59Z,42.805,6.029,13.3012,4.60075,2470.787,2022-5-30T21:34:41Z
2022-05-30T19:36:02Z,42.805,6.029,13.3007,4.60091,2470.777,2022-5-30T21:37:44Z
2022-05-30T19:39:05Z,42.805,6.029,13.3019,4.60085,2470.787,2022-5-30T21:40:47Z
2022-05-30T19:42:08Z,42.805,6.029,13.3014,4.60094,2470.754,2022-5-30T21:43:50Z
2022-05-30T19:45:11Z,42.805,6.029,13.3014,4.60078,2470.763,2022-5-30T21:46:53Z
2022-05-30T19:48:14Z,42.805,6.029,13.3009,4.60062,2470.777,2022-5-30T21:49:56Z
2022-05-30T19:51:17Z,42.805,6.029,13.3006,4.60058,2470.754,2022-5-30T21:52:59Z
2022-05-30T19:54:21Z,42.805,6.029,13.3011,4.60062,2470.787,2022-5-30T21:56:03Z
2022-05-30T19:57:24Z,42.805,6.029,13.3010,4.60053,2470.74,2022-5-30T21:59:06Z
2022-05-30T20:00:27Z,42.805,6.029,13.3013,4.60073,2470.763,2022-5-30T22:02:09Z
2022-05-30T20:03:30Z,42.805,6.029,13.3006,4.60074,2470.777,2022-5-30T22:05:12Z
2022-05-30T20:06:33Z,42.805,6.029,13.3015,4.60066,2470.763,2022-5-30T22:08:15Z
2022-05-30T20:09:36Z,42.805,6.029,13.3023,4.60078,2470.74,2022-5-30T22:11:18Z
2022-05-30T20:12:39Z,42.805,6.029,13.3015,4.60086,2470.763,2022-5-30T22:14:21Z
2022-05-30T20:15:42Z,42.805,6.029,13.3016,4.60061,2470.763,2022-5-30T22:17:24Z
2022-05-30T20:18:45Z,42.805,6.029,13.3014,4.60077,2470.8,2022-5-30T22:20:28Z
2022-05-30T20:21:49Z,42.805,6.029,13.3011,4.60069,2470.787,2022-5-30T22:23:31Z
2022-05-30T20:24:52Z,42.805,6.029,13.3014,4.60079,2470.777,2022-5-30T22:26:34Z
2022-05-30T20:27:55Z,42.805,6.029,13.3007,4.60065,2470.777,2022-5-30T22:29:37Z
2022-05-30T20:30:58Z,42.805,6.029,13.3005,4.60064,2470.763,2022-5-30T22:32:40Z
2022-05-30T20:34:01Z,42.805,6.029,13.3009,4.60090,2470.777,2022-5-30T22:35:43Z
2022-05-30T20:37:04Z,42.805,6.029,13.3009,4.60074,2470.754,2022-5-30T22:38:46Z
2022-05-30T20:40:07Z,42.805,6.029,13.3009,4.60081,2470.73,2022-5-30T22:41:49Z
2022-05-30T20:43:11Z,42.805,6.029,13.3019,4.60072,2470.763,2022-5-30T22:44:53Z
2022-05-30T20:46:14Z,42.805,6.029,13.3026,4.60097,2470.763,2022-5-30T22:47:56Z
2022-05-30T20:49:17Z,42.805,6.029,13.3024,4.60072,2470.787,2022-5-30T22:50:59Z
2022-05-30T20:52:20Z,42.805,6.029,13.3009,4.60079,2470.754,2022-5-30T22:54:02Z
2022-05-30T20:55:23Z,42.805,6.029,13.3016,4.60085,2470.787,2022-5-30T22:57:05Z
2022-05-30T20:58:26Z,42.805,6.029,13.3015,4.60071,2470.717,2022-5-30T23:00:08Z
2022-05-30T21:01:29Z,42.805,6.029,13.3013,4.60069,2470.763,2022-5-30T23:03:11Z
2022-05-30T21:04:32Z,42.805,6.029,13.3017,4.60073,2470.74,2022-5-30T23:06:14Z
2022-05-30T21:07:35Z,42.805,6.029,13.3011,4.60066,2470.777,2022-5-30T23:09:18Z
2022-05-30T21:10:39Z,42.805,6.029,13.3009,4.60060,2470.74,2022-5-30T23:12:21Z
2022-05-30T21:13:42Z,42.805,6.029,13.3009,4.60067,2470.777,2022-5-30T23:15:24Z
2022-05-30T21:16:45Z,42.805,6.029,13.3018,4.60067,2470.787,2022-5-30T23:18:27Z
2022-05-30T21:19:48Z,42.805,6.029,13.3004,4.60059,2470.754,2022-5-30T23:21:30Z
2022-05-30T21:22:51Z,42.805,6.029,13.3009,4.60061,2470.777,2022-5-30T23:24:33Z
2022-05-30T21:25:54Z,42.805,6.029,13.3009,4.60053,2470.754,2022-5-30T23:27:36Z
2022-05-30T21:28:57Z,42.805,6.029,13.3014,4.60064,2470.74,2022-5-30T23:30:39Z
2022-05-30T21:32:01Z,42.805,6.029,13.3015,4.60088,2470.717,2022-5-30T23:33:43Z
2022-05-30T21:35:04Z,42.805,6.029,13.3021,4.60070,2470.74,2022-5-30T23:36:46Z
2022-05-30T21:38:07Z,42.805,6.029,13.3020,4.60087,2470.754,2022-5-30T23:39:49Z
2022-05-30T21:41:10Z,42.805,6.029,13.3009,4.60065,2470.754,2022-5-30T23:42:52Z
2022-05-30T21:44:13Z,42.805,6.029,13.3025,4.60074,2470.74,2022-5-30T23:45:55Z
2022-05-30T21:47:16Z,42.805,6.029,13.3024,4.60084,2470.717,2022-5-30T23:48:58Z
2022-05-30T21:50:19Z,42.805,6.029,13.3015,4.60098,2470.754,2022-5-30T23:52:01Z
2022-05-30T21:53:22Z,42.805,6.029,13.3013,4.60093,2470.73,2022-5-30T23:55:04Z
2022-05-30T21:56:26Z,42.805,6.029,13.3012,4.60078,2470.74,2022-5-30T23:58:08Z
2022-05-30T21:59:29Z,42.805,6.029,13.3011,4.60059,2470.717,2022-5-31T00:01:11Z
2022-05-30T22:02:32Z,42.805,6.029,13.3015,4.60081,2470.73,2022-5-31T00:04:14Z
2022-05-30T22:05:35Z,42.805,6.029,13.3019,4.60072,2470.74,2022-5-31T00:07:17Z
2022-05-30T22:08:38Z,42.805,6.029,13.3015,4.60087,2470.777,2022-5-31T00:10:20Z
2022-05-30T22:11:41Z,42.805,6.029,13.3005,4.60067,2470.73,2022-5-31T00:13:23Z
2022-05-30T22:14:44Z,42.805,6.029,13.3011,4.60062,2470.73,2022-5-31T00:16:26Z
2022-05-30T22:17:47Z,42.805,6.029,13.3006,4.60058,2470.717,2022-5-31T00:19:30Z
2022-05-30T22:20:51Z,42.805,6.029,13.3014,4.60084,2470.74,2022-5-31T00:22:33Z
2022-05-30T22:23:54Z,42.805,6.029,13.3016,4.60076,2470.754,2022-5-31T00:25:36Z
2022-05-30T22:26:57Z,42.805,6.029,13.3022,4.60061,2470.693,2022-5-31T00:28:39Z
2022-05-30T22:30:00Z,42.805,6.029,13.3009,4.60071,2470.717,2022-5-31T00:31:42Z
2022-05-30T22:33:03Z,42.805,6.029,13.3018,4.60081,2470.74,2022-5-31T00:34:45Z
2022-05-30T22:36:06Z,42.805,6.029,13.3011,4.60074,2470.693,2022-5-31T00:37:48Z
2022-05-30T22:39:09Z,42.805,6.029,13.3006,4.60072,2470.74,2022-5-31T00:40:51Z
2022-05-30T22:42:12Z,42.805,6.029,13.3009,4.60060,2470.73,2022-5-31T00:43:55Z
2022-05-30T22:45:16Z,42.805,6.029,13.3011,4.60079,2470.717,2022-5-31T00:46:58Z
2022-05-30T22:48:19Z,42.805,6.029,13.3015,4.60085,2470.73,2022-5-31T00:50:01Z
2022-05-30T22:51:22Z,42.805,6.029,13.3008,4.60074,2470.707,2022-5-31T00:53:04Z
2022-05-30T22:54:25Z,42.805,6.029,13.3007,4.60076,2470.74,2022-5-31T00:56:07Z
2022-05-30T22:57:28Z,42.805,6.029,13.3010,4.60080,2470.73,2022-5-31T00:59:10Z
2022-05-30T23:00:31Z,42.805,6.029,13.3014,4.60081,2470.73,2022-5-31T01:02:13Z
2022-05-30T23:03:34Z,42.805,6.029,13.3021,4.60099,2470.717,2022-5-31T01:05:16Z
2022-05-30T23:06:37Z,42.805,6.029,13.3009,4.60076,2470.707,2022-5-31T01:08:19Z
2022-05-30T23:09:40Z,42.805,6.029,13.3014,4.60072,2470.707,2022-5-31T01:11:23Z
2022-05-30T23:12:44Z,42.805,6.029,13.3009,4.60084,2470.67,2022-5-31T01:14:26Z
2022-05-30T23:15:47Z,42.805,6.029,13.3010,4.60072,2470.721,2022-5-31T01:17:29Z
2022-05-30T23:18:50Z,42.805,6.029,13.3017,4.60064,2470.707,2022-5-31T01:20:32Z
2022-05-30T23:21:53Z,42.805,6.029,13.3014,4.60081,2470.67,2022-5-31T01:23:35Z
2022-05-30T23:24:56Z,42.805,6.029,13.3011,4.60083,2470.67,2022-5-31T01:26:38Z
2022-05-30T23:27:59Z,42.805,6.029,13.3011,4.60088,2470.684,2022-5-31T01:29:41Z
2022-05-30T23:31:02Z,42.805,6.029,13.3010,4.60062,2470.646,2022-5-31T01:32:44Z
2022-05-30T23:34:05Z,42.805,6.029,13.3024,4.60081,2470.693,2022-5-31T01:35:48Z
2022-05-30T23:37:09Z,42.805,6.029,13.3008,4.60077,2470.684,2022-5-31T01:38:51Z
2022-05-30T23:40:12Z,42.805,6.029,13.3018,4.60077,2470.67,2022-5-31T01:41:54Z
2022-05-30T23:43:15Z,42.805,6.029,13.3009,4.60065,2470.646,2022-5-31T01:44:57Z
2022-05-30T23:46:18Z,42.805,6.029,13.3007,4.60064,2470.67,2022-5-31T01:48:00Z
2022-05-30T23:49:21Z,42.805,6.029,13.3020,4.60068,2470.684,2022-5-31T01:51:03Z
2022-05-30T23:52:24Z,42.805,6.029,13.3017,4.60081,2470.646,2022-5-31T01:54:06Z
2022-05-30T23:55:27Z,42.805,6.029,13.3017,4.60084,2470.67,2022-5-31T01:57:09Z
2022-05-30T23:58:30Z,42.805,6.029,13.3009,4.60072,2470.684,2022-5-31T02:00:13Z
